| time (UTC) | temp F | wind direction | speed MPH | gust MPH | rain 1hr in | rain 24hr in | rain mn in | humidity % | barometer mb |
| 20260506195528 | 63 | 201 | 2.0 | 7.0 | 0.03 | 0.03 | 0.03 | 84 | 1006.8 |
| 20260506195027 | 63 | 185 | 2.0 | 11.0 | 0.03 | 0.03 | 0.03 | 83 | 1006.9 |
| 20260506194527 | 64 | 192 | 2.0 | 7.0 | 0.03 | 0.03 | 0.03 | 83 | 1006.9 |
| 20260506194047 | 64 | 185 | 1.0 | 4.0 | 0.02 | 0.02 | 0.02 | 82 | 1007.1 |
| 20260506193529 | 65 | 192 | 1.0 | 4.0 | 0.02 | 0.02 | 0.02 | 80 | 1007.0 |
| 20260506193029 | 65 | 235 | 1.0 | 7.0 | 0.02 | 0.02 | 0.02 | 77 | 1007.0 |
| 20260506192527 | 66 | 221 | 2.0 | 14.0 | 0.01 | 0.01 | 0.01 | 74 | 1007.0 |
| 20260506192028 | 66 | 215 | 2.0 | 14.0 | 0.01 | 0.01 | 0.01 | 73 | 1007.0 |
| 20260506191528 | 67 | 265 | 1.0 | 6.0 | 0.00 | 0.00 | 0.00 | 71 | 1007.0 |
| 20260506191027 | 68 | 227 | 3.0 | 8.0 | 0.00 | 0.00 | 0.00 | 67 | 1006.9 |
| 20260506190527 | 68 | 278 | 2.0 | 9.0 | 0.00 | 0.00 | 0.00 | 65 | 1006.9 |
| 20260506190027 | 68 | 257 | 2.0 | 7.0 | 0.00 | 0.00 | 0.00 | 64 | 1007.0 |
| 20260506185529 | 69 | 242 | 2.0 | 14.0 | 0.00 | 0.00 | 0.00 | 63 | 1007.0 |
| 20260506185029 | 69 | 226 | 4.0 | 14.0 | 0.00 | 0.00 | 0.00 | 62 | 1007.1 |
| 20260506184528 | 69 | 252 | 4.0 | 14.0 | 0.00 | 0.00 | 0.00 | 61 | 1007.0 |
| 20260506184029 | 70 | 149 | 2.0 | 15.0 | 0.00 | 0.00 | 0.00 | 60 | 1007.0 |
| 20260506183528 | 70 | 232 | 3.0 | 23.0 | 0.00 | 0.00 | 0.00 | 58 | 1007.0 |
| 20260506183028 | 71 | 234 | 2.0 | 7.0 | 0.00 | 0.00 | 0.00 | 56 | 1007.0 |
| 20260506182528 | 71 | 198 | 3.0 | 13.0 | 0.00 | 0.00 | 0.00 | 55 | 1007.1 |
| 20260506182028 | 71 | 215 | 2.0 | 13.0 | 0.00 | 0.00 | 0.00 | 54 | 1007.1 |
| 20260506181528 | 72 | 75 | 1.0 | 3.0 | 0.00 | 0.00 | 0.00 | 54 | 1007.1 |
| 20260506181048 | 72 | 232 | 1.0 | 4.0 | 0.00 | 0.00 | 0.00 | 53 | 1007.0 |
| 20260506180528 | 72 | 286 | 2.0 | 11.0 | 0.00 | 0.00 | 0.00 | 53 | 1007.2 |
| 20260506180027 | 72 | 211 | 3.0 | 13.0 | 0.00 | 0.00 | 0.00 | 52 | 1007.3 |
| 20260506175548 | 72 | 223 | 5.0 | 15.0 | 0.00 | 0.00 | 0.00 | 52 | 1007.3 |
| 20260506175027 | 72 | 247 | 4.0 | 15.0 | 0.00 | 0.00 | 0.00 | 52 | 1007.4 |
| 20260506174527 | 73 | 192 | 3.0 | 13.0 | 0.00 | 0.00 | 0.00 | 54 | 1007.3 |
| 20260506174049 | 72 | 193 | 4.0 | 13.0 | 0.00 | 0.00 | 0.00 | 55 | 1007.3 |
| 20260506173529 | 72 | 169 | 4.0 | 13.0 | 0.00 | 0.00 | 0.00 | 56 | 1007.5 |
| 20260506173029 | 72 | 172 | 4.0 | 18.0 | 0.00 | 0.00 | 0.00 | 56 | 1007.6 |
| 20260506172548 | 72 | 208 | 3.0 | 11.0 | 0.00 | 0.00 | 0.00 | 56 | 1007.5 |
| 20260506172028 | 72 | 195 | 5.0 | 13.0 | 0.00 | 0.00 | 0.00 | 56 | 1007.6 |
| 20260506171548 | 72 | 188 | 4.0 | 14.0 | 0.00 | 0.00 | 0.00 | 56 | 1007.5 |
| 20260506171028 | 72 | 209 | 4.0 | 14.0 | 0.00 | 0.00 | 0.00 | 57 | 1007.5 |
| 20260506170548 | 72 | 193 | 3.0 | 10.0 | 0.00 | 0.00 | 0.00 | 59 | 1007.6 |
| 20260506170028 | 71 | 160 | 5.0 | 14.0 | 0.00 | 0.00 | 0.00 | 58 | 1007.6 |
| 20260506165548 | 71 | 200 | 4.0 | 14.0 | 0.00 | 0.00 | 0.00 | 58 | 1007.8 |
| 20260506165028 | 71 | 234 | 4.0 | 13.0 | 0.00 | 0.00 | 0.00 | 57 | 1007.8 |
| 20260506164527 | 71 | 189 | 4.0 | 10.0 | 0.00 | 0.00 | 0.00 | 58 | 1007.9 |
| 20260506164027 | 71 | 280 | 3.0 | 8.0 | 0.00 | 0.00 | 0.00 | 58 | 1007.9 |
| 20260506163527 | 71 | 220 | 2.0 | 7.0 | 0.00 | 0.00 | 0.00 | 58 | 1007.9 |
| 20260506163027 | 71 | 155 | 3.0 | 11.0 | 0.00 | 0.00 | 0.00 | 58 | 1008.0 |
| 20260506162547 | 71 | 165 | 3.0 | 10.0 | 0.00 | 0.00 | 0.00 | 57 | 1008.2 |
| 20260506162027 | 72 | 231 | 3.0 | 10.0 | 0.00 | 0.00 | 0.00 | 57 | 1008.3 |
| 20260506161527 | 72 | 184 | 3.0 | 10.0 | 0.00 | 0.00 | 0.00 | 56 | 1008.4 |
| 20260506161028 | 72 | 169 | 2.0 | 8.0 | 0.00 | 0.00 | 0.00 | 57 | 1008.3 |
| 20260506160528 | 72 | 207 | 2.0 | 11.0 | 0.00 | 0.00 | 0.00 | 57 | 1008.5 |
| 20260506160028 | 72 | 288 | 3.0 | 7.0 | 0.00 | 0.00 | 0.00 | 56 | 1008.5 |
| 20260506155528 | 72 | 157 | 2.0 | 15.0 | 0.00 | 0.00 | 0.00 | 56 | 1008.7 |
| 20260506155028 | 72 | 230 | 4.0 | 15.0 | 0.00 | 0.00 | 0.00 | 55 | 1008.8 |
| 20260506154528 | 72 | 249 | 1.0 | 6.0 | 0.00 | 0.00 | 0.00 | 57 | 1008.7 |
| 20260506154048 | 72 | 230 | 2.0 | 11.0 | 0.00 | 0.00 | 0.00 | 56 | 1008.8 |
| 20260506153527 | 72 | 188 | 4.0 | 13.0 | 0.00 | 0.00 | 0.00 | 56 | 1008.9 |
| 20260506153027 | 72 | 243 | 4.0 | 17.0 | 0.00 | 0.00 | 0.00 | 55 | 1009.1 |
| 20260506152527 | 72 | 224 | 3.0 | 9.0 | 0.00 | 0.00 | 0.00 | 55 | 1009.0 |
| 20260506152029 | 73 | 211 | 4.0 | 10.0 | 0.00 | 0.00 | 0.00 | 55 | 1009.0 |
| 20260506151529 | 72 | 199 | 3.0 | 10.0 | 0.00 | 0.00 | 0.00 | 57 | 1009.1 |
| 20260506151029 | 72 | 212 | 4.0 | 15.0 | 0.00 | 0.00 | 0.00 | 57 | 1009.2 |
| 20260506150549 | 72 | 206 | 3.0 | 10.0 | 0.00 | 0.00 | 0.00 | 58 | 1009.2 |
| 20260506150049 | 71 | 238 | 3.0 | 8.0 | 0.00 | 0.00 | 0.00 | 58 | 1009.3 |
| 20260506145528 | 71 | 248 | 3.0 | 16.0 | 0.00 | 0.00 | 0.00 | 59 | 1009.3 |
| 20260506145028 | 71 | 206 | 2.0 | 10.0 | 0.00 | 0.00 | 0.00 | 60 | 1009.1 |
| 20260506144548 | 70 | 206 | 3.0 | 10.0 | 0.00 | 0.00 | 0.00 | 60 | 1009.2 |
| 20260506144028 | 70 | 230 | 3.0 | 10.0 | 0.00 | 0.00 | 0.00 | 61 | 1009.1 |
| 20260506143528 | 70 | 248 | 3.0 | 10.0 | 0.00 | 0.00 | 0.00 | 61 | 1009.2 |
| 20260506143028 | 70 | 223 | 3.0 | 10.0 | 0.00 | 0.00 | 0.00 | 62 | 1009.2 |
| 20260506142528 | 70 | 208 | 2.0 | 13.0 | 0.00 | 0.00 | 0.00 | 62 | 1009.1 |
| 20260506142028 | 69 | 196 | 3.0 | 13.0 | 0.00 | 0.00 | 0.00 | 64 | 1009.1 |
| 20260506141527 | 69 | 201 | 3.0 | 14.0 | 0.00 | 0.00 | 0.00 | 63 | 1009.2 |
| 20260506141027 | 69 | 186 | 3.0 | 11.0 | 0.00 | 0.00 | 0.00 | 65 | 1009.2 |
| 20260506140529 | 69 | 236 | 3.0 | 14.0 | 0.00 | 0.00 | 0.00 | 65 | 1009.3 |
| 20260506140029 | 69 | 208 | 3.0 | 11.0 | 0.00 | 0.00 | 0.00 | 65 | 1009.3 |
| 20260506135529 | 68 | 186 | 3.0 | 11.0 | 0.00 | 0.00 | 0.00 | 67 | 1009.3 |
| 20260506135028 | 67 | 154 | 2.0 | 8.0 | 0.00 | 0.00 | 0.00 | 68 | 1009.3 |
| 20260506134528 | 67 | 202 | 3.0 | 14.0 | 0.00 | 0.00 | 0.00 | 69 | 1009.4 |
| 20260506134028 | 66 | 217 | 3.0 | 11.0 | 0.00 | 0.00 | 0.00 | 69 | 1009.6 |
| 20260506133528 | 66 | 164 | 3.0 | 9.0 | 0.00 | 0.00 | 0.00 | 70 | 1009.8 |
| 20260506133028 | 66 | 178 | 1.0 | 6.0 | 0.00 | 0.00 | 0.00 | 72 | 1009.9 |
| 20260506132528 | 65 | 211 | 2.0 | 7.0 | 0.00 | 0.00 | 0.00 | 72 | 1009.9 |
| 20260506132027 | 65 | 190 | 1.0 | 9.0 | 0.00 | 0.00 | 0.00 | 71 | 1009.8 |
| 20260506131548 | 65 | 205 | 2.0 | 9.0 | 0.00 | 0.00 | 0.00 | 71 | 1009.8 |
| 20260506131027 | 65 | 266 | 1.0 | 9.0 | 0.00 | 0.00 | 0.00 | 73 | 1009.7 |
| 20260506130527 | 65 | 221 | 1.0 | 4.0 | 0.00 | 0.00 | 0.00 | 73 | 1009.8 |
| 20260506130027 | 65 | 198 | 2.0 | 7.0 | 0.00 | 0.00 | 0.00 | 72 | 1009.8 |
| 20260506125527 | 65 | 186 | 2.0 | 7.0 | 0.00 | 0.00 | 0.00 | 73 | 1009.8 |
| 20260506125029 | 65 | 199 | 3.0 | 10.0 | 0.00 | 0.00 | 0.00 | 73 | 1009.7 |
| 20260506124529 | 64 | 174 | 4.0 | 10.0 | 0.00 | 0.00 | 0.00 | 73 | 1009.8 |
| 20260506124029 | 64 | 169 | 3.0 | 10.0 | 0.00 | 0.00 | 0.00 | 73 | 1010.0 |
| 20260506123528 | 64 | 175 | 3.0 | 10.0 | 0.00 | 0.00 | 0.00 | 74 | 1010.1 |
| 20260506123028 | 63 | 211 | 1.0 | 3.0 | 0.00 | 0.00 | 0.00 | 77 | 1010.0 |
| 20260506122528 | 63 | 196 | 1.0 | 3.0 | 0.00 | 0.00 | 0.00 | 76 | 1010.0 |
| 20260506122028 | 63 | 214 | 2.0 | 7.0 | 0.00 | 0.00 | 0.00 | 75 | 1009.8 |
| 20260506121528 | 63 | 172 | 3.0 | 13.0 | 0.00 | 0.00 | 0.00 | 75 | 1009.9 |
| 20260506121028 | 63 | 209 | 3.0 | 10.0 | 0.00 | 0.00 | 0.00 | 75 | 1009.8 |
| 20260506120527 | 63 | 221 | 3.0 | 10.0 | 0.00 | 0.00 | 0.00 | 75 | 1009.9 |
| 20260506120028 | 62 | 174 | 3.0 | 10.0 | 0.00 | 0.00 | 0.00 | 77 | 1010.0 |
| 20260506115527 | 62 | 204 | 3.0 | 10.0 | 0.00 | 0.00 | 0.00 | 77 | 1010.2 |
| 20260506115027 | 62 | 212 | 2.0 | 10.0 | 0.00 | 0.00 | 0.00 | 78 | 1010.2 |
| 20260506114527 | 62 | 191 | 2.0 | 4.0 | 0.00 | 0.00 | 0.00 | 78 | 1010.1 |
| 20260506114027 | 62 | 218 | 2.0 | 10.0 | 0.00 | 0.00 | 0.00 | 78 | 1010.4 |
| 20260506113529 | 62 | 227 | 2.0 | 7.0 | 0.00 | 0.00 | 0.00 | 78 | 1010.4 |
| 20260506113029 | 62 | 258 | 2.0 | 13.0 | 0.00 | 0.00 | 0.00 | 78 | 1010.4 |
| 20260506112528 | 62 | 220 | 2.0 | 8.0 | 0.00 | 0.00 | 0.00 | 78 | 1010.3 |
| 20260506112028 | 62 | 231 | 2.0 | 8.0 | 0.00 | 0.00 | 0.00 | 77 | 1010.1 |
| 20260506111528 | 62 | 206 | 2.0 | 10.0 | 0.00 | 0.00 | 0.00 | 78 | 1010.2 |
| 20260506111028 | 62 | 231 | 2.0 | 10.0 | 0.00 | 0.00 | 0.00 | 77 | 1010.2 |
| 20260506110528 | 62 | 208 | 3.0 | 10.0 | 0.00 | 0.00 | 0.00 | 78 | 1010.3 |
| 20260506110028 | 61 | 204 | 2.0 | 8.0 | 0.00 | 0.00 | 0.00 | 79 | 1010.1 |
| 20260506105528 | 60 | 192 | 3.0 | 9.0 | 0.00 | 0.00 | 0.00 | 80 | 1010.1 |
| 20260506105027 | 60 | 202 | 1.0 | 7.0 | 0.00 | 0.00 | 0.00 | 81 | 1010.2 |
| 20260506104527 | 60 | 193 | 2.0 | 10.0 | 0.00 | 0.00 | 0.00 | 80 | 1010.2 |
| 20260506104027 | 60 | 215 | 2.0 | 6.0 | 0.00 | 0.00 | 0.00 | 81 | 1010.3 |
| 20260506103527 | 60 | 162 | 2.0 | 4.0 | 0.00 | 0.00 | 0.00 | 80 | 1010.3 |
| 20260506103027 | 60 | 212 | 2.0 | 4.0 | 0.00 | 0.00 | 0.00 | 80 | 1010.3 |
| 20260506102528 | 60 | 215 | 2.0 | 8.0 | 0.00 | 0.00 | 0.00 | 80 | 1010.2 |
| 20260506102027 | 60 | 200 | 2.0 | 8.0 | 0.00 | 0.00 | 0.00 | 80 | 1010.3 |
| 20260506101527 | 60 | 182 | 2.0 | 9.0 | 0.00 | 0.00 | 0.00 | 80 | 1010.2 |
| 20260506101027 | 60 | 158 | 1.0 | 6.0 | 0.00 | 0.00 | 0.00 | 80 | 1010.1 |
| 20260506100547 | 60 | 207 | 1.0 | 6.0 | 0.00 | 0.00 | 0.00 | 80 | 1010.2 |
| 20260506100029 | 60 | 200 | 1.0 | 7.0 | 0.00 | 0.00 | 0.00 | 80 | 1010.1 |
| 20260506095528 | 60 | 185 | 1.0 | 8.0 | 0.00 | 0.00 | 0.00 | 80 | 1009.9 |
| 20260506095028 | 60 | 190 | 2.0 | 8.0 | 0.00 | 0.00 | 0.00 | 79 | 1009.9 |
| 20260506094528 | 60 | 204 | 2.0 | 7.0 | 0.00 | 0.00 | 0.00 | 79 | 1009.9 |
| 20260506094027 | 60 | 196 | 2.0 | 7.0 | 0.00 | 0.00 | 0.00 | 79 | 1010.0 |
| 20260506093527 | 60 | 201 | 1.0 | 4.0 | 0.00 | 0.00 | 0.00 | 79 | 1010.0 |
| 20260506093027 | 60 | 201 | 1.0 | 8.0 | 0.00 | 0.00 | 0.00 | 78 | 1010.1 |
| 20260506092527 | 60 | 211 | 1.0 | 7.0 | 0.00 | 0.00 | 0.00 | 78 | 1010.0 |
| 20260506092027 | 61 | 167 | 1.0 | 6.0 | 0.00 | 0.00 | 0.00 | 78 | 1010.1 |
| 20260506091528 | 61 | 199 | 2.0 | 8.0 | 0.00 | 0.00 | 0.00 | 77 | 1010.0 |
| 20260506091028 | 61 | 217 | 1.0 | 4.0 | 0.00 | 0.00 | 0.00 | 77 | 1010.1 |
| 20260506090528 | 61 | 205 | 2.0 | 6.0 | 0.00 | 0.00 | 0.00 | 76 | 1010.0 |
| 20260506090028 | 61 | 214 | 2.0 | 8.0 | 0.00 | 0.00 | 0.00 | 76 | 1010.1 |
| 20260506085528 | 61 | 199 | 2.0 | 7.0 | 0.00 | 0.00 | 0.00 | 76 | 1010.1 |
| 20260506085028 | 61 | 204 | 1.0 | 6.0 | 0.00 | 0.00 | 0.00 | 76 | 1010.1 |
| 20260506084528 | 61 | 209 | 1.0 | 6.0 | 0.00 | 0.00 | 0.00 | 75 | 1010.1 |
| 20260506084028 | 61 | 203 | 3.0 | 10.0 | 0.00 | 0.00 | 0.00 | 75 | 1010.1 |
| 20260506083527 | 61 | 218 | 2.0 | 10.0 | 0.00 | 0.00 | 0.00 | 75 | 1010.1 |
| 20260506083028 | 61 | 235 | 2.0 | 8.0 | 0.00 | 0.00 | 0.00 | 75 | 1010.0 |
| 20260506082527 | 61 | 193 | 3.0 | 15.0 | 0.00 | 0.00 | 0.00 | 75 | 1010.0 |
| 20260506082027 | 61 | 286 | 2.0 | 8.0 | 0.00 | 0.00 | 0.00 | 74 | 1009.9 |
| 20260506081527 | 62 | 249 | 1.0 | 6.0 | 0.00 | 0.00 | 0.00 | 74 | 1009.9 |
| 20260506081027 | 62 | 228 | 2.0 | 11.0 | 0.00 | 0.00 | 0.00 | 74 | 1010.0 |
| 20260506080609 | 62 | 218 | 2.0 | 9.0 | 0.00 | 0.00 | 0.00 | 74 | 1010.0 |
| 20260506073028 | 62 | 204 | 3.0 | 14.0 | 0.00 | 0.00 | 0.00 | 72 | 1009.8 |
| 20260506072528 | 62 | 169 | 3.0 | 16.0 | 0.00 | 0.00 | 0.00 | 72 | 1009.8 |
| 20260506072027 | 62 | 249 | 2.0 | 13.0 | 0.00 | 0.00 | 0.00 | 72 | 1009.8 |
| 20260506071528 | 62 | 180 | 3.0 | 13.0 | 0.00 | 0.00 | 0.00 | 71 | 1009.8 |
| 20260506071027 | 63 | 208 | 1.0 | 8.0 | 0.00 | 0.00 | 0.00 | 71 | 1009.7 |
| 20260506070528 | 63 | 213 | 2.0 | 8.0 | 0.00 | 0.00 | 0.00 | 70 | 1009.6 |
| 20260506062028 | 64 | 192 | 2.0 | 7.0 | 0.00 | 0.00 | 0.00 | 67 | 1009.5 |
| 20260506061528 | 64 | 204 | 2.0 | 9.0 | 0.00 | 0.00 | 0.00 | 66 | 1009.5 |
| 20260506061027 | 64 | 205 | 2.0 | 11.0 | 0.00 | 0.00 | 0.00 | 66 | 1009.4 |
| 20260506060527 | 64 | 201 | 2.0 | 7.0 | 0.00 | 0.00 | 0.00 | 65 | 1009.4 |
| 20260506051108 | 64 | 215 | 2.0 | 8.0 | 0.00 | 0.00 | 0.00 | 62 | 1009.8 |
| 20260506050548 | 64 | 172 | 2.0 | 14.0 | 0.00 | 0.00 | 0.00 | 62 | 1009.8 |
| 20260506045028 | 65 | 192 | 2.0 | 8.0 | 0.00 | 0.00 | 0.00 | 61 | 1010.0 |
| 20260506044528 | 65 | 193 | 3.0 | 14.0 | 0.00 | 0.00 | 0.00 | 61 | 1010.0 |
| 20260506044027 | 64 | 198 | 3.0 | 11.0 | 0.00 | 0.00 | 0.00 | 61 | 1009.9 |
| 20260506043527 | 64 | 199 | 2.0 | 6.0 | 0.00 | 0.00 | 0.00 | 61 | 1009.9 |
| 20260506043027 | 64 | 244 | 2.0 | 7.0 | 0.00 | 0.00 | 0.00 | 61 | 1009.9 |
| 20260506042527 | 64 | 247 | 1.0 | 7.0 | 0.00 | 0.00 | 0.00 | 61 | 1010.0 |
| 20260506042032 | 64 | 185 | 2.0 | 6.0 | 0.00 | 0.00 | 0.00 | 61 | 1010.0 |
| 20260506041529 | 65 | 299 | 2.0 | 8.0 | 0.00 | 0.00 | 0.00 | 60 | 1009.9 |
| 20260506041029 | 64 | 269 | 3.0 | 9.0 | 0.00 | 0.00 | 0.00 | 60 | 1010.0 |
| 20260506040549 | 64 | 229 | 3.0 | 11.0 | 0.00 | 0.00 | 0.00 | 60 | 1010.0 |
| 20260506040028 | 64 | 225 | 3.0 | 9.0 | 0.00 | 0.00 | 0.00 | 60 | 1009.9 |
| 20260506035528 | 64 | 220 | 3.0 | 13.0 | 0.00 | 0.00 | 0.00 | 61 | 1010.0 |
| 20260506035028 | 64 | 198 | 2.0 | 10.0 | 0.00 | 0.00 | 0.00 | 61 | 1009.9 |
| 20260506034528 | 64 | 261 | 2.0 | 11.0 | 0.00 | 0.00 | 0.00 | 61 | 1009.9 |
| 20260506034028 | 64 | 201 | 2.0 | 11.0 | 0.00 | 0.00 | 0.00 | 61 | 1009.9 |
| 20260506033528 | 64 | 214 | 2.0 | 7.0 | 0.00 | 0.00 | 0.00 | 60 | 1009.8 |
| 20260506033027 | 64 | 213 | 3.0 | 15.0 | 0.00 | 0.00 | 0.00 | 60 | 1009.9 |
| 20260506032528 | 64 | 245 | 2.0 | 10.0 | 0.00 | 0.00 | 0.00 | 60 | 1009.8 |
| 20260506032027 | 64 | 240 | 1.0 | 8.0 | 0.00 | 0.00 | 0.00 | 60 | 1009.8 |
| 20260506031527 | 64 | 228 | 2.0 | 9.0 | 0.00 | 0.00 | 0.00 | 60 | 1009.8 |
| 20260506031027 | 64 | 198 | 2.0 | 10.0 | 0.00 | 0.00 | 0.00 | 60 | 1009.7 |
| 20260506030527 | 64 | 210 | 3.0 | 8.0 | 0.00 | 0.00 | 0.00 | 59 | 1009.7 |
| 20260506030029 | 64 | 234 | 2.0 | 8.0 | 0.00 | 0.00 | 0.00 | 59 | 1009.8 |
| 20260506025528 | 64 | 236 | 1.0 | 7.0 | 0.00 | 0.00 | 0.00 | 59 | 1009.8 |
| 20260506025028 | 64 | 224 | 3.0 | 16.0 | 0.00 | 0.00 | 0.00 | 58 | 1009.8 |
| 20260506024528 | 64 | 224 | 2.0 | 10.0 | 0.00 | 0.00 | 0.00 | 58 | 1009.8 |
| 20260506024028 | 64 | 207 | 3.0 | 14.0 | 0.00 | 0.00 | 0.00 | 58 | 1009.8 |
| 20260506023528 | 64 | 225 | 3.0 | 10.0 | 0.00 | 0.00 | 0.00 | 58 | 1009.8 |
| 20260506023028 | 65 | 231 | 2.0 | 11.0 | 0.00 | 0.00 | 0.00 | 57 | 1009.8 |
| 20260506022527 | 65 | 150 | 3.0 | 11.0 | 0.00 | 0.00 | 0.00 | 57 | 1009.8 |
| 20260506022027 | 65 | 234 | 2.0 | 13.0 | 0.00 | 0.00 | 0.00 | 57 | 1009.7 |
| 20260506021527 | 65 | 211 | 3.0 | 10.0 | 0.00 | 0.00 | 0.00 | 56 | 1009.7 |
| 20260506021027 | 65 | 187 | 1.0 | 8.0 | 0.00 | 0.00 | 0.00 | 57 | 1009.7 |
| 20260506020527 | 65 | 259 | 1.0 | 11.0 | 0.00 | 0.00 | 0.00 | 56 | 1009.7 |
| 20260506020027 | 65 | 64 | 4.0 | 14.0 | 0.00 | 0.00 | 0.00 | 55 | 1009.7 |
| 20260506015527 | 65 | 241 | 2.0 | 14.0 | 0.00 | 0.00 | 0.00 | 55 | 1009.6 |
| 20260506015027 | 66 | 212 | 2.0 | 7.0 | 0.00 | 0.00 | 0.00 | 55 | 1009.7 |
| 20260506014528 | 66 | 216 | 3.0 | 10.0 | 0.00 | 0.00 | 0.00 | 54 | 1009.7 |
| 20260506014028 | 66 | 208 | 4.0 | 11.0 | 0.00 | 0.00 | 0.00 | 54 | 1009.6 |
| 20260506013528 | 66 | 193 | 4.0 | 14.0 | 0.00 | 0.00 | 0.00 | 54 | 1009.6 |
| 20260506013028 | 66 | 264 | 2.0 | 14.0 | 0.00 | 0.00 | 0.00 | 54 | 1009.4 |
| 20260506012548 | 67 | 221 | 3.0 | 13.0 | 0.00 | 0.00 | 0.00 | 54 | 1009.4 |
| 20260506012048 | 67 | 211 | 4.0 | 13.0 | 0.00 | 0.00 | 0.00 | 54 | 1009.2 |
| 20260506011527 | 67 | 177 | 2.0 | 7.0 | 0.00 | 0.00 | 0.00 | 55 | 1009.2 |
| 20260506011028 | 67 | 230 | 3.0 | 10.0 | 0.00 | 0.00 | 0.00 | 55 | 1009.2 |
| 20260506010528 | 67 | 201 | 2.0 | 10.0 | 0.00 | 0.00 | 0.00 | 55 | 1009.0 |
| 20260506010027 | 67 | 203 | 2.0 | 9.0 | 0.00 | 0.00 | 0.00 | 55 | 1009.0 |
| 20260506005547 | 67 | 197 | 3.0 | 11.0 | 0.00 | 0.00 | 0.00 | 55 | 1009.0 |
| 20260506005027 | 67 | 206 | 3.0 | 11.0 | 0.00 | 0.00 | 0.00 | 55 | 1009.1 |
| 20260506004527 | 66 | 194 | 2.0 | 9.0 | 0.00 | 0.00 | 0.00 | 55 | 1009.0 |
| 20260506004027 | 67 | 203 | 2.0 | 14.0 | 0.00 | 0.00 | 0.00 | 55 | 1008.9 |
| 20260506003526 | 67 | 206 | 3.0 | 14.0 | 0.00 | 0.00 | 0.00 | 55 | 1008.8 |
| 20260506003029 | 67 | 194 | 2.0 | 7.0 | 0.00 | 0.00 | 0.00 | 55 | 1008.8 |
| 20260506002528 | 67 | 190 | 2.0 | 7.0 | 0.00 | 0.00 | 0.00 | 55 | 1008.6 |
| 20260506002028 | 66 | 157 | 2.0 | 7.0 | 0.00 | 0.00 | 0.00 | 55 | 1008.6 |
| 20260506001528 | 67 | 230 | 1.0 | 6.0 | 0.00 | 0.00 | 0.00 | 55 | 1008.3 |
| 20260506001028 | 67 | 216 | 2.0 | 9.0 | 0.00 | 0.00 | 0.00 | 54 | 1008.3 |
| 20260506000608 | 67 | 221 | 2.0 | 9.0 | 0.00 | 0.00 | 0.00 | 54 | 1008.1 |
| 20260506000028 | 67 | 201 | 3.0 | 11.0 | 0.00 | 0.00 | 0.00 | 53 | 1008.0 |
| 20260505235527 | 67 | 240 | 2.0 | 11.0 | 0.00 | 0.00 | 0.00 | 53 | 1008.0 |
| 20260505235047 | 68 | 197 | 3.0 | 9.0 | 0.00 | 0.00 | 0.00 | 53 | 1007.9 |
| 20260505234527 | 68 | 213 | 2.0 | 10.0 | 0.00 | 0.00 | 0.00 | 53 | 1007.7 |
| 20260505234027 | 68 | 173 | 3.0 | 14.0 | 0.00 | 0.00 | 0.00 | 52 | 1007.7 |
| 20260505233527 | 69 | 219 | 3.0 | 10.0 | 0.00 | 0.00 | 0.00 | 51 | 1007.7 |
| 20260505233027 | 70 | 242 | 3.0 | 11.0 | 0.00 | 0.00 | 0.00 | 50 | 1007.6 |
| 20260505232527 | 70 | 222 | 3.0 | 11.0 | 0.00 | 0.00 | 0.00 | 49 | 1007.5 |
| 20260505232027 | 70 | 226 | 3.0 | 11.0 | 0.00 | 0.00 | 0.00 | 48 | 1007.6 |
| 20260505231528 | 71 | 235 | 3.0 | 11.0 | 0.00 | 0.00 | 0.00 | 48 | 1007.4 |
| 20260505231029 | 71 | 178 | 2.0 | 8.0 | 0.00 | 0.00 | 0.00 | 48 | 1007.4 |
| 20260505230528 | 71 | 226 | 3.0 | 9.0 | 0.00 | 0.00 | 0.00 | 48 | 1007.4 |
| 20260505230028 | 71 | 248 | 3.0 | 8.0 | 0.00 | 0.00 | 0.00 | 48 | 1007.1 |
| 20260505225528 | 71 | 192 | 3.0 | 10.0 | 0.00 | 0.00 | 0.00 | 48 | 1007.1 |
| 20260505225027 | 72 | 184 | 3.0 | 14.0 | 0.00 | 0.00 | 0.00 | 48 | 1007.0 |
| 20260505224528 | 72 | 219 | 3.0 | 14.0 | 0.00 | 0.00 | 0.00 | 48 | 1006.9 |
| 20260505224027 | 72 | 206 | 4.0 | 13.0 | 0.00 | 0.00 | 0.00 | 47 | 1006.8 |
| 20260505223527 | 72 | 195 | 4.0 | 10.0 | 0.00 | 0.00 | 0.00 | 47 | 1006.7 |
| 20260505223027 | 72 | 211 | 4.0 | 10.0 | 0.00 | 0.00 | 0.00 | 47 | 1006.5 |
| 20260505222527 | 72 | 248 | 3.0 | 10.0 | 0.00 | 0.00 | 0.00 | 47 | 1006.4 |
| 20260505222027 | 73 | 198 | 3.0 | 13.0 | 0.00 | 0.00 | 0.00 | 47 | 1006.4 |
| 20260505221547 | 73 | 230 | 4.0 | 13.0 | 0.00 | 0.00 | 0.00 | 47 | 1006.5 |
| 20260505221027 | 73 | 203 | 5.0 | 23.0 | 0.00 | 0.00 | 0.00 | 46 | 1006.8 |
| 20260505220607 | 73 | 191 | 5.0 | 14.0 | 0.00 | 0.00 | 0.00 | 46 | 1006.8 |
| 20260505220048 | 73 | 182 | 3.0 | 16.0 | 0.00 | 0.00 | 0.00 | 47 | 1006.8 |
| 20260505215528 | 73 | 167 | 3.0 | 15.0 | 0.00 | 0.00 | 0.00 | 47 | 1006.8 |
| 20260505215028 | 73 | 206 | 3.0 | 11.0 | 0.00 | 0.00 | 0.00 | 46 | 1006.8 |
| 20260505214528 | 73 | 215 | 6.0 | 15.0 | 0.00 | 0.00 | 0.00 | 46 | 1006.7 |
| 20260505214028 | 74 | 208 | 5.0 | 15.0 | 0.00 | 0.00 | 0.00 | 45 | 1006.6 |
| 20260505213528 | 74 | 158 | 3.0 | 15.0 | 0.00 | 0.00 | 0.00 | 45 | 1006.6 |
| 20260505213028 | 74 | 217 | 3.0 | 15.0 | 0.00 | 0.00 | 0.00 | 45 | 1006.5 |
| 20260505212528 | 75 | 188 | 5.0 | 17.0 | 0.00 | 0.00 | 0.00 | 44 | 1006.4 |
| 20260505212048 | 75 | 208 | 4.0 | 17.0 | 0.00 | 0.00 | 0.00 | 44 | 1006.3 |
| 20260505211527 | 76 | 189 | 4.0 | 11.0 | 0.00 | 0.00 | 0.00 | 43 | 1006.2 |
| 20260505211047 | 76 | 226 | 6.0 | 15.0 | 0.00 | 0.00 | 0.00 | 42 | 1006.2 |
| 20260505210527 | 76 | 237 | 3.0 | 11.0 | 0.00 | 0.00 | 0.00 | 42 | 1006.1 |
| 20260505210027 | 77 | 213 | 4.0 | 15.0 | 0.00 | 0.00 | 0.00 | 41 | 1006.2 |
| 20260505205527 | 77 | 210 | 4.0 | 21.0 | 0.00 | 0.00 | 0.00 | 41 | 1006.2 |
| 20260505205026 | 77 | 252 | 4.0 | 21.0 | 0.00 | 0.00 | 0.00 | 41 | 1006.1 |
| 20260505204528 | 78 | 243 | 3.0 | 13.0 | 0.00 | 0.00 | 0.00 | 41 | 1006.0 |
| 20260505204029 | 78 | 167 | 4.0 | 18.0 | 0.00 | 0.00 | 0.00 | 40 | 1005.9 |
| 20260505203528 | 78 | 250 | 4.0 | 15.0 | 0.00 | 0.00 | 0.00 | 39 | 1006.1 |
| 20260505203028 | 79 | 229 | 4.0 | 14.0 | 0.00 | 0.00 | 0.00 | 39 | 1006.1 |
| 20260505202528 | 79 | 211 | 4.0 | 11.0 | 0.00 | 0.00 | 0.00 | 39 | 1006.1 |
| 20260505202028 | 79 | 195 | 5.0 | 23.0 | 0.00 | 0.00 | 0.00 | 38 | 1006.0 |
| 20260505201653 | 80 | 174 | 5.0 | 16.0 | 0.00 | 0.00 | 0.00 | 38 | 1006.1 |
| 20260505201028 | 80 | 210 | 4.0 | 15.0 | 0.00 | 0.00 | 0.00 | 39 | 1006.1 |
| 20260505200527 | 81 | 204 | 5.0 | 17.0 | 0.00 | 0.00 | 0.00 | 38 | 1005.9 |
| 20260505200047 | 80 | 220 | 2.0 | 10.0 | 0.00 | 0.00 | 0.00 | 39 | 1006.0 |